Regional Weather Roundup
Issued by NWS Kansas City/Pleasant Hill, MO

Home | Current Version | Previous Version | Text Only | Print | Product List | Glossary On
Versions: 1 2 3 4 5 6 7 8 9 10 11 12 13 14 15 16 17 18 19 20 21 22 23 24 25 26 27 28 29 30 31 32 33 34 35 36 37 38 39 40 41 42 43 44 45 46 47 48 49 50
000
ASUS43 KEAX 110010
RWREAX

WEATHER ROUNDUP FOR EASTERN KANSAS AND NORTHWEST MISSOURI
NATIONAL WEATHER SERVICE KANSAS CITY/PLEASANT HILL MO
600 PM CST WED FEB 10 2016

KSZ040-057-103>105-MOZ028-029-037-043-110100-
...KANSAS CITY METROPOLITAN AREA...

CITY           SKY/WX    TMP DP  RH WIND       PRES   REMARKS
K.C. INTL      PTCLDY    44  22  41 E7        29.94R
6HR MIN TEMP:  37; 6HR MAX TEMP:  49;

K.C. DOWNTOWN  CLEAR     45  21  38 E9        29.94S
6HR MIN TEMP:  39; 6HR MAX TEMP:  50;

LEES SUMMIT    CLEAR     44  20  38 E8        29.95R
6HR MIN TEMP:  35; 6HR MAX TEMP:  48;

OLATHE - IXD   CLEAR     46  24  42 E7        29.93R
6HR MIN TEMP:  39; 6HR MAX TEMP:  51;

OLATHE - OJC   CLEAR     46  21  37 E5        29.93R
6HR MIN TEMP:  37; 6HR MAX TEMP:  48;

LAWRENCE       CLEAR     47  23  38 E8        29.92R

$$

MOZ001>008-011>017-020>025-030>033-038>040-044>046-053-054-110100-
...NORTHERN AND CENTRAL MISSOURI...

CITY           SKY/WX    TMP DP  RH WIND       PRES   REMARKS
ST. JOSEPH     CLEAR     41  20  43 E8        29.96R
6HR MIN TEMP:  37; 6HR MAX TEMP:  48;

MOSBY          CLEAR     41  19  42 E6        29.97R
WARRENSBURG    CLEAR     37  19  48 E6        29.98S WCI  33
WHITEMAN AFB   CLEAR     40  19  43 SE3       29.98R
6HR MIN TEMP:  33; 6HR MAX TEMP:  43;

CLINTON          N/A     39  23  52 E3        29.99S
SEDALIA        CLEAR     31  20  63 E8        30.02R WCI  23
6HR MIN TEMP:  31; 6HR MAX TEMP:  44;

WARSAW         NOT AVBL
CHILLICOTHE      N/A     28  21  75 E8        30.06R WCI  20
6HR MIN TEMP:  28; 6HR MAX TEMP:  34;

KIRKSVILLE     CLOUDY    21  16  81 E8        30.09R WCI  11
6HR MIN TEMP:  20; 6HR MAX TEMP:  22; 6HR PCP:  0.03;


$$

MOZ041-047>049-056>058-063>065-088>090-097-110100-
...EASTERN AND SOUTHERN MISSOURI...

CITY           SKY/WX    TMP DP  RH WIND       PRES   REMARKS
ST. LOUIS INTL FLURRIES  23  16  74 SE3       30.14S
6HR MIN TEMP:  22; 6HR MAX TEMP:  24; 6HR PCP:  0.06;

SPIRIT OF STL  CLOUDY    22  18  85 E5        30.13S WCI  16
COLUMBIA       PTCLDY    25  18  74 SE9       30.04S WCI  15
JEFFERSON CITY CLEAR     27  19  72 E8        30.07R WCI  19
ROLLA          CLEAR     26  19  74 E15       30.01S WCI  14
OSAGE BEACH    CLEAR     32  18  55 NE12      30.02R WCI  23
SPRINGFIELD    CLEAR     46  20  35 W3        29.96R
BRANSON        CLEAR     50  21  32 SW3       29.97
JOPLIN         CLEAR     49  24  37 S9        29.94F
WEST PLAINS    CLEAR     39  13  34 SE5       30.00S

$$

IAZ060-094-KSZ022-034>040-054-083-096-NEZ052-066-093-110100-
...KANSAS...SOUTHEAST NEBRASKA AND IOWA...

CITY           SKY/WX    TMP DP  RH WIND       PRES   REMARKS
TOPEKA         CLEAR     50  27  40 N5        29.91R
6HR MIN TEMP:  43; 6HR MAX TEMP:  60;

MANHATTAN      CLEAR     56  31  38 N5        29.91R
EMPORIA        CLEAR     58  30  34 SW5       29.88R
CHANUTE        CLEAR     50  28  42 S7        29.90F
WICHITA        CLEAR     64  27  24 W9        29.90R
OMAHA          PTCLDY    32  24  72 NE14      30.00R WCI  22
LINCOLN        CLEAR     34  27  75 NE6       29.97R WCI  29
FALLS CITY     CLEAR     42  24  49 NE8       29.94R
LAMONI         CLOUDY    24  19  81 E10       30.01R WCI  14
DES MOINES     CLOUDY    19  11  70 E9        30.09R WCI   8

$$




USA.gov is the U.S. government's official web portal to all federal, state and local government web resources and services.